FW8061 Weather Reports


time (UTC)temp
C
wind
direction
speed
KPH
gust
KPH
rain 1hr
cm
rain 24hr
cm
rain mn
cm
humidity
%
barometer
mb
20260505153018 20 193 4.8 12.9 0.00 0.00 0.00 66 1000.4
20260505152018 20 190 6.4 12.9 0.00 0.00 0.00 68 1000.4
20260505151019 19 185 8.0 16.1 0.00 0.00 0.00 68 1000.4
20260505125021 12 190 6.4 12.9 0.00 0.00 0.00 87 1001.6
20260505124021 12 192 6.4 9.7 0.00 0.00 0.00 89 1001.6
20260505123021 12 179 6.4 12.9 0.00 0.00 0.00 89 1001.8
20260505122021 13 191 8.0 12.9 0.00 0.00 0.00 85 1002.0
20260505121043 13 201 4.8 14.5 0.00 0.00 0.00 78 1002.3
20260505120022 14 195 4.8 9.7 0.00 0.00 0.00 75 1002.2
20260505115023 15 183 8.0 12.9 0.00 0.00 0.00 67 1002.0
20260505114042 15 181 8.0 14.5 0.00 0.00 0.00 66 1001.6
20260505113019 15 180 8.0 17.7 0.00 0.00 0.00 65 1001.5
20260505112023 14 190 6.4 14.5 0.00 0.00 0.00 66 1001.5
20260505111016 14 200 6.4 14.5 0.00 0.00 0.00 67 1001.3
20260505102023 13 201 6.4 12.9 0.00 0.00 0.00 66 1001.1
20260505101017 13 198 6.4 11.3 0.00 0.00 0.00 67 1001.0
20260505100040 13 196 8.0 14.5 0.00 0.00 0.00 67 1001.1
20260505095018 13 192 6.4 12.9 0.00 0.00 0.00 67 1001.2
20260505094018 13 196 6.4 9.7 0.00 0.00 0.00 67 1001.3
20260505093019 13 200 4.8 11.3 0.00 0.00 0.00 67 1001.4
20260505092019 13 201 4.8 9.7 0.00 0.00 0.00 67 1001.4
20260505091018 13 205 6.4 12.9 0.00 0.00 0.00 66 1001.4
20260505090019 13 199 8.0 14.5 0.00 0.00 0.00 66 1001.4
20260505085019 13 191 6.4 12.9 0.00 0.00 0.00 66 1001.3
20260505084020 13 198 6.4 11.3 0.00 0.00 0.00 67 1001.4
20260505083019 13 199 6.4 11.3 0.00 0.00 0.00 67 1001.4
20260505082019 13 208 6.4 14.5 0.00 0.00 0.00 67 1001.5
20260505081021 13 193 6.4 11.3 0.00 0.00 0.00 68 1001.3
20260505080020 12 204 6.4 11.3 0.00 0.00 0.00 69 1001.4
20260505075021 12 195 6.4 11.3 0.00 0.00 0.00 70 1001.4
20260505074020 12 191 6.4 11.3 0.00 0.00 0.00 70 1001.5
20260505073040 12 196 4.8 8.0 0.00 0.00 0.00 70 1001.6
20260505072040 12 195 4.8 11.3 0.00 0.00 0.00 69 1001.7
20260505071022 13 213 6.4 12.9 0.00 0.00 0.00 67 1001.9
20260505070022 13 207 4.8 9.7 0.00 0.00 0.00 66 1001.9
20260505065021 13 193 4.8 9.7 0.00 0.00 0.00 66 1001.8
20260505064021 13 205 4.8 11.3 0.00 0.00 0.00 65 1001.8
20260505063022 13 190 4.8 9.7 0.00 0.00 0.00 64 1001.8
20260505062041 13 201 4.8 11.3 0.00 0.00 0.00 65 1001.8
20260505061022 13 200 4.8 8.0 0.00 0.00 0.00 64 1001.8
20260505060022 14 197 4.8 11.3 0.00 0.00 0.00 64 1001.9
20260505055023 14 195 4.8 11.3 0.00 0.00 0.00 63 1002.0
20260505054022 14 198 4.8 11.3 0.00 0.00 0.00 63 1002.1
20260505053022 14 199 4.8 9.7 0.00 0.00 0.00 63 1002.2
20260505052023 14 206 4.8 9.7 0.00 0.00 0.00 64 1002.3
20260505051016 14 198 4.8 9.7 0.00 0.00 0.00 64 1002.4
20260505041019 14 203 4.8 9.7 0.00 0.00 0.00 65 1002.7
20260505040038 14 196 3.2 9.7 0.00 0.00 0.00 66 1002.8
20260505035018 13 188 3.2 8.0 0.00 0.00 0.00 67 1002.7
20260505034018 13 188 3.2 6.4 0.00 0.00 0.00 69 1002.8
20260505033019 13 208 3.2 6.4 0.00 0.00 0.00 69 1002.8
20260505032040 13 201 4.8 9.7 0.00 0.00 0.00 70 1003.0
20260505031017 12 197 3.2 4.8 0.00 0.00 0.00 73 1003.0
20260505030020 12 203 1.6 3.2 0.00 0.00 0.00 73 1003.1
20260505025019 12 193 1.6 4.8 0.00 0.00 0.00 74 1003.2
20260505024017 12 259 1.6 3.2 0.00 0.00 0.00 73 1003.2
20260505023019 12 176 1.6 4.8 0.00 0.00 0.00 74 1003.2
20260505022017 12 189 1.6 3.2 0.00 0.00 0.00 74 1003.3
20260505021016 13 0.0 0.0 0.00 0.00 0.00 74 1003.5
20260505020018 13 284 0.0 1.6 0.00 0.00 0.00 73 1003.5
20260505015018 13 228 0.0 1.6 0.00 0.00 0.00 73 1003.5
20260505014037 13 220 0.0 3.2 0.00 0.00 0.00 72 1003.5
20260505013019 13 196 0.0 1.6 0.00 0.00 0.00 72 1003.5
20260505012017 14 0.0 0.0 0.00 0.00 0.00 71 1003.5
20260505011018 14 212 1.6 3.2 0.00 0.00 0.00 71 1003.7
20260505010019 14 180 1.6 4.8 0.00 0.00 0.00 70 1003.6
20260505005058 15 180 1.6 6.4 0.00 0.00 0.00 70 1003.6
20260505004018 15 169 3.2 6.4 0.00 0.00 0.00 69 1003.5
20260505003018 15 163 3.2 8.0 0.00 0.00 0.00 69 1003.5
20260505002018 15 165 3.2 8.0 0.00 0.00 0.00 68 1003.5
20260505001058 15 159 4.8 9.7 0.00 0.00 0.00 67 1003.4
20260505000039 15 162 4.8 8.0 0.00 0.00 0.00 67 1003.3
20260504235019 16 161 4.8 8.0 0.00 0.00 0.00 66 1003.2
20260504234018 16 168 4.8 9.7 0.00 0.00 0.00 65 1003.2
20260504233039 16 169 4.8 8.0 0.00 0.00 0.00 65 1003.1
20260504232020 16 163 4.8 11.3 0.00 0.00 0.00 66 1003.1
20260504231018 16 163 4.8 8.0 0.00 0.00 0.00 65 1003.2
20260504230021 16 169 4.8 11.3 0.00 0.00 0.00 64 1003.3
20260504225017 16 173 4.8 9.7 0.00 0.00 0.00 64 1003.4
20260504224017 16 179 4.8 8.0 0.00 0.00 0.00 64 1003.4
20260504223020 16 170 3.2 9.7 0.00 0.00 0.00 64 1003.3
20260504222017 17 168 3.2 9.7 0.00 0.00 0.00 61 1003.3
20260504221018 17 171 4.8 11.3 0.00 0.00 0.00 60 1003.3
20260504220018 17 211 3.2 9.7 0.00 0.00 0.00 57 1003.2
20260504215019 17 203 3.2 11.3 0.00 0.00 0.00 57 1003.2
20260504214018 17 187 3.2 9.7 0.00 0.00 0.00 57 1003.2
20260504213018 17 193 3.2 9.7 0.00 0.00 0.00 57 1003.3
20260504212020 18 215 3.2 8.0 0.00 0.00 0.00 55 1003.3
20260504211020 18 196 3.2 11.3 0.00 0.00 0.00 55 1003.4
20260504210039 17 232 3.2 8.0 0.00 0.00 0.00 55 1003.4
20260504205040 18 207 3.2 9.7 0.00 0.00 0.00 54 1003.4
20260504204016 17 225 3.2 6.4 0.00 0.00 0.00 56 1003.5
20260504203039 17 214 3.2 11.3 0.00 0.00 0.00 57 1003.6
20260504202020 17 208 3.2 8.0 0.00 0.00 0.00 57 1003.7
20260504201021 17 255 3.2 8.0 0.00 0.00 0.00 57 1003.7
20260504200016 16 222 3.2 8.0 0.00 0.00 0.00 59 1003.8
20260504195020 16 198 4.8 12.9 0.00 0.00 0.00 60 1003.9
20260504194041 16 197 4.8 12.9 0.00 0.00 0.00 62 1004.0
20260504193038 15 206 4.8 9.7 0.00 0.00 0.00 63 1004.1
20260504192038 15 202 4.8 11.3 0.00 0.00 0.00 63 1004.3
20260504191018 15 200 4.8 12.9 0.00 0.00 0.00 65 1004.4
20260504190019 14 275 4.8 12.9 0.00 0.00 0.00 66 1004.6
20260504185018 14 191 4.8 12.9 0.00 0.00 0.00 67 1004.9
20260504184041 14 190 4.8 11.3 0.00 0.00 0.00 69 1005.0
20260504183019 13 212 3.2 9.7 0.00 0.00 0.00 70 1005.0
20260504182020 13 243 4.8 11.3 0.00 0.00 0.00 70 1005.1
20260504181020 13 195 4.8 11.3 0.00 0.00 0.00 71 1005.1
20260504180039 13 210 3.2 11.3 0.00 0.00 0.00 72 1005.2
20260504175017 13 212 3.2 8.0 0.00 0.00 0.00 72 1005.2
20260504174019 13 223 3.2 11.3 0.00 0.00 0.00 70 1005.3
20260504173020 13 271 3.2 9.7 0.00 0.00 0.00 68 1005.3
20260504172016 12 229 4.8 9.7 0.00 0.00 0.00 68 1005.4
20260504171020 12 274 6.4 16.1 0.00 0.00 0.00 68 1005.4